[[{"header":{"parameterUnit":"m.s-1","parameterCategory":1,"la1":30.2991,"la2":30.254,"lo1":-89.0895,"lo2":-89.0444,"dy":0.0017,"dx":0.0017,"nx":28,"ny":28,"refTime":"2026-02-07T03:00:00:Z","depth":0,"parameterNumber":2,"parameterNumberName":"U-component_of_WINDS"},"data":[0,0,0,0,0,0,0,0,0,0,0,0,0,0,0,0,0,0,0,0,0,0,0,0,0,0,0,0,0,0,0,0,0,0,0,0,0,0,0,0,0,0,0,0,0,0,0,0,0,0,0,0,0,0,0,0,0,0,3.7929,3.7929,0,3.7927,3.7927,3.7927,3.7856,3.7855,3.7853,3.7851,3.7852,3.7853,3.7855,0,0,0,0,0,0,0,0,0,0,0,0,0,3.7878,3.7879,3.7929,3.7929,3.7929,3.7927,3.7927,3.7927,3.7857,3.7855,3.7852,3.785,3.7851,3.7853,3.7855,0,0,0,0,0,0,0,0,0,0,0,0,0,3.789,3.7879,3.7929,3.7893,3.789,3.7927,3.7927,3.7927,3.7857,3.7855,3.7852,3.7849,3.785,3.7853,3.7856,3.7926,0,0,3.7863,3.7865,0,0,0,0,0,0,0,0,3.789,3.7892,3.7899,3.7896,3.7892,3.7889,3.7909,3.7927,3.7858,3.787,3.7851,3.7848,3.7867,3.7868,3.7873,3.7926,3.7926,3.7864,3.7865,3.7866,3.7867,0,0,0,0,0,0,0,3.7889,3.7892,3.7928,3.7899,3.7895,3.788,3.7878,3.7912,3.7884,3.7869,3.7864,3.7864,3.7864,3.7871,3.7873,3.7926,3.7864,3.7866,3.7867,3.7868,3.8043,3.8046,0,0,0,0,0,0,3.7892,3.7892,3.7928,3.7928,3.7884,3.7883,3.7881,3.7893,3.7883,3.7879,3.7866,3.7861,3.7868,3.787,3.7873,3.7959,3.7866,3.7869,3.787,3.804,3.8044,3.8047,0,0,0,0,0,0,3.7891,3.7896,3.7928,3.7908,3.7911,3.7887,3.79,3.7894,3.7901,3.7881,3.7876,3.7878,3.7866,3.7869,3.7915,3.7958,3.787,3.7872,3.8037,3.8042,3.8046,3.8129,0,0,0,0,0,0,3.789,3.7896,3.7921,3.7909,3.7913,3.7969,3.7903,3.7896,3.7905,3.7898,3.7891,3.7887,3.7864,3.7911,3.7917,3.796,3.7874,3.8033,3.8039,3.8044,3.8123,3.8136,3.8148,0,0,0,0,0,3.7889,3.7944,3.7923,3.7928,3.7943,3.7971,3.7973,3.7944,3.7909,3.7935,3.7924,3.7888,3.7952,3.7916,3.7923,3.7966,3.803,3.8037,3.8044,3.8117,3.8133,3.8147,0,0,0,0,0,0,3.7961,3.7942,3.7918,3.7971,3.7973,3.7959,3.7991,3.7962,3.7975,3.7968,3.7932,3.7931,3.7984,3.7979,3.794,3.8037,3.7985,3.7993,3.8038,3.8054,3.8066,3.8067,3.7876,0,0,0,0,0,3.7983,3.8006,3.7988,3.8037,3.804,3.8016,3.8027,3.8005,3.8006,3.8007,3.7998,3.8002,3.8023,3.8038,3.8056,3.8121,3.8121,3.8155,3.8168,3.8178,3.8187,3.8226,3.8242,3.807,3.807,3.807,0,0,3.8029,3.8021,3.8038,3.8052,3.8051,3.8078,3.8017,3.8047,3.8067,3.8011,3.8055,3.8049,3.8051,3.8109,3.8133,3.8107,3.8234,3.8187,3.8196,3.8198,3.8235,3.8251,3.8265,3.8075,3.8074,3.8074,0,0,3.8127,3.8122,3.8164,3.8166,3.8166,3.815,3.8161,3.8152,3.8146,3.8189,3.8149,3.8174,3.821,3.8215,3.8222,3.8328,3.8297,3.8335,3.8401,3.844,3.8454,3.8465,3.8507,3.8522,3.8343,3.8343,3.8343,0,3.8184,3.8222,3.819,3.8224,3.8233,3.8184,3.8229,3.8232,3.8239,3.8247,3.8217,3.8265,3.8263,3.8323,3.8349,3.8355,3.8369,3.8336,3.8454,3.8466,3.8476,3.8515,3.8531,3.8348,3.8348,3.8347,3.8347,0,3.8295,3.8322,3.8356,3.8365,3.8378,3.8417,3.8393,3.8411,3.8389,3.8377,3.8425,3.8421,3.844,3.8452,3.843,3.8511,3.8495,3.846,3.8407,3.8498,3.8534,3.8549,3.8355,3.8353,3.8352,3.8351,0,0,3.8436,3.843,3.8443,3.8449,3.8447,3.8469,3.8508,3.8526,3.8544,3.8551,3.8585,3.8619,3.8589,3.8597,3.8576,3.8609,3.8699,3.8571,3.8571,3.8598,3.8792,3.882,3.8837,3.8678,3.868,3.8682,3.8793,0,3.8534,3.8599,3.8573,3.8641,3.8669,3.8625,3.866,3.8665,3.8656,3.868,3.867,3.8697,3.8652,3.8658,3.8689,3.8681,3.8738,3.8672,3.8712,3.8714,3.8715,3.8856,3.8884,3.8988,3.8807,3.8809,3.8811,0,3.8656,3.867,3.8741,3.8739,3.875,3.8781,3.8799,3.8821,3.8827,3.8819,3.8831,3.8804,3.8845,3.8792,3.885,3.8807,3.8822,3.8821,3.8824,3.8828,3.8769,3.8867,3.902,3.9037,3.8832,3.883,3.8829,0,3.8757,3.8793,3.8841,3.8847,3.8845,3.8869,3.887,3.8873,3.8887,3.8903,3.8913,3.8934,3.8946,3.8964,3.8945,3.8907,3.9008,3.8951,3.9005,3.9006,3.9029,3.9028,3.919,3.9035,3.9035,3.9034,3.9034,0,3.8869,3.8915,3.8887,3.8917,3.8969,3.8941,3.8994,3.899,3.8994,3.9025,3.8988,3.9018,3.8989,3.9018,3.9003,3.9057,3.9061,3.9058,3.9054,3.9063,3.9064,3.9073,3.9066,3.9039,3.9038,3.9037,3.9036,0,3.899,3.8973,3.9023,3.9019,3.9019,3.9058,3.9055,3.9085,3.9075,3.9115,3.9122,3.9107,3.914,3.9122,3.9154,3.9145,3.9215,3.92,3.9213,3.921,3.9266,3.9262,3.9442,3.9465,3.9293,3.9294,3.9296,0,3.9064,3.9099,3.91,3.9118,3.9121,3.915,3.9165,3.914,3.9158,3.9171,3.92,3.9229,3.925,3.9304,3.9298,3.9324,3.9311,3.9372,3.9314,3.9324,3.9316,3.9315,3.932,3.9384,3.9386,3.9388,3.9389,0,3.9199,3.919,3.9213,3.9235,3.9254,3.927,3.9283,3.93,3.9276,3.9299,3.9331,3.9348,3.9383,3.9414,3.9438,3.944,3.9413,3.9407,3.9422,3.9432,3.9439,3.944,3.9248,3.9403,3.9402,3.9401,3.94,3.94,3.9301,3.9332,3.9338,3.9366,3.9374,3.9388,3.9417,3.9412,3.9438,3.9464,3.9449,3.9488,3.9498,3.9527,3.9534,3.9567,3.9542,3.9562,3.9568,3.9574,3.9583,3.9433,3.957,3.957,3.957,3.9569,3.9569,0,3.9436,3.9439,3.9465,3.9486,3.951,3.9481,3.9495,3.9517,3.9552,3.9563,3.9587,3.9627,3.9658,3.9655,3.9684,3.9711,3.9699,3.972,3.9719,3.9721,3.9601,3.9587,3.9729,3.9729,3.9729,3.9729,3.9729,3.9729,3.9509,3.9562,3.9554,3.9611,3.9614,3.9652,3.9664,3.9678,3.9687,3.9734,3.9759,3.9757,3.9764,3.9794,3.9823,3.9821,3.9835,3.9861,3.9856,3.9744,3.9728,3.9713,3.97,3.9864,3.9864,3.9973,3.9974,3.9975]},{"header":{"parameterUnit":"m.s-1","parameterCategory":1,"la1":30.2991,"la2":30.254,"lo1":-89.0895,"lo2":-89.0444,"dy":0.0017,"dx":0.0017,"nx":28,"ny":28,"refTime":"2026-02-07T03:00:00:Z","depth":0,"parameterNumber":3,"parameterNumberName":"V-component_of_WINDS"},"data":[0,0,0,0,0,0,0,0,0,0,0,0,0,0,0,0,0,0,0,0,0,0,0,0,0,0,0,0,0,0,0,0,0,0,0,0,0,0,0,0,0,0,0,0,0,0,0,0,0,0,0,0,0,0,0,0,0,0,1.9773,1.9774,0,1.988,1.9881,1.9883,1.9905,1.9904,1.9904,1.9903,2.001,2.0013,2.0017,0,0,0,0,0,0,0,0,0,0,0,0,0,1.9584,1.9588,1.9773,1.9775,1.9776,1.988,1.9882,1.9883,1.9905,1.9904,1.9903,1.9902,2.0009,2.0013,2.0017,0,0,0,0,0,0,0,0,0,0,0,0,0,1.9676,1.9589,1.9773,1.98,1.9803,1.988,1.9882,1.9883,1.9905,1.9904,1.9903,1.9902,2.0007,2.0012,2.0018,2.0075,0,0,2.0034,2.0036,0,0,0,0,0,0,0,0,1.9671,1.9683,1.9794,1.9798,1.9802,1.9878,1.9854,1.9947,1.9906,1.9867,1.9903,1.9901,1.9967,1.9975,1.9998,2.008,2.0084,2.0035,2.0038,2.004,2.0042,0,0,0,0,0,0,0,1.9665,1.9679,1.9815,1.9796,1.9801,1.9805,1.9817,1.9872,1.9922,1.987,1.9872,1.9884,1.9969,1.9993,2.0001,2.0086,2.0034,2.0039,2.0043,2.0045,2.0217,2.0218,0,0,0,0,0,0,1.9654,1.9673,1.9812,1.9819,1.9732,1.9809,1.9823,1.9855,1.9921,1.993,1.9885,1.9885,1.9984,1.9994,2.0004,2.0074,2.004,2.0045,2.0048,2.0216,2.0217,2.0219,0,0,0,0,0,0,1.965,1.9666,1.9808,1.9747,1.9765,1.9814,1.985,1.9858,1.9882,1.9933,1.9942,1.9901,1.9984,1.9997,2.0057,2.0078,2.0048,2.0052,2.0214,2.0216,2.0218,2.0214,0,0,0,0,0,0,1.9644,1.9665,1.9688,1.9747,1.9768,1.9859,1.9851,1.9861,1.9891,1.9892,1.995,1.9959,1.9984,2.0048,2.0062,2.0085,2.0057,2.0212,2.0215,2.0217,2.0213,2.0216,2.0219,0,0,0,0,0,1.9638,1.9682,1.9689,1.9706,1.9798,1.9861,1.9873,1.9901,1.9893,1.9916,1.9948,1.9957,2.0074,2.0054,2.007,2.0095,2.0211,2.0214,2.0217,2.0212,2.0215,2.0219,0,0,0,0,0,0,1.9624,1.9691,1.9699,1.9764,1.9807,1.9864,1.9894,1.9905,1.995,1.9949,1.9982,1.9995,2.0052,2.0079,2.0057,2.0152,2.0142,2.0148,2.0132,2.0136,2.0139,2.0131,2.0061,0,0,0,0,0,1.9629,1.9675,1.973,1.9783,1.9804,1.9845,1.9873,1.9892,1.9937,1.9955,1.9992,2.0034,2.008,2.011,2.0155,2.0217,2.0229,2.0241,2.0244,2.0247,2.0251,2.0284,2.029,2.0229,2.0229,2.0229,0,0,1.9639,1.9681,1.9708,1.9781,1.9816,1.9862,1.986,1.9909,1.9943,1.9962,2.002,2.0049,2.0098,2.0158,2.0187,2.0183,2.0271,2.025,2.0252,2.0256,2.0288,2.0293,2.0298,2.0231,2.023,2.023,0,0,1.968,1.9718,1.9765,1.98,1.9853,1.988,1.9891,1.9947,1.9967,2.0026,2.0041,2.0081,2.016,2.0194,2.0222,2.0274,2.0282,2.0288,2.0303,2.0335,2.0339,2.0344,2.0361,2.0367,2.0292,2.0292,2.0292,0,1.9686,1.9757,1.9787,1.9835,1.9866,1.9886,1.9932,1.9965,2.0029,2.0049,2.0044,2.0143,2.0178,2.0245,2.0258,2.028,2.0293,2.0281,2.0336,2.0341,2.0346,2.0362,2.0369,2.0292,2.0292,2.0292,2.0292,0,1.976,1.9808,1.984,1.9902,1.9937,1.9984,2.002,2.0051,2.0066,2.0093,2.0151,2.0194,2.0247,2.0264,2.028,2.0334,2.033,2.033,2.032,2.0351,2.0367,2.0374,2.0293,2.0293,2.0293,2.0293,0,0,1.9797,1.9875,1.9886,1.9913,1.9973,2.001,2.0057,2.011,2.0135,2.0178,2.0217,2.0283,2.0284,2.0315,2.0334,2.0361,2.0398,2.0358,2.036,2.0363,2.0458,2.0457,2.0464,2.0404,2.0405,2.0406,2.0453,0,1.9844,1.993,1.9958,2.0029,2.0073,2.0092,2.0132,2.0172,2.0198,2.0238,2.0266,2.0312,2.031,2.0329,2.0357,2.0387,2.0417,2.0385,2.0439,2.0441,2.0426,2.0473,2.0472,2.0514,2.046,2.0461,2.0462,0,1.9912,1.9957,2.0032,2.0084,2.0104,2.014,2.019,2.0229,2.0273,2.029,2.0324,2.034,2.0388,2.0376,2.0441,2.0418,2.0442,2.046,2.0462,2.0468,2.0453,2.0478,2.0529,2.0535,2.0473,2.0472,2.0471,0,1.993,2.0009,2.0064,2.0087,2.015,2.0174,2.0201,2.0245,2.0275,2.0317,2.0336,2.0384,2.041,2.0445,2.0473,2.0462,2.0535,2.0526,2.0549,2.0549,2.0564,2.0562,2.0618,2.058,2.058,2.058,2.058,0,1.998,2.0025,2.0072,2.0106,2.0156,2.0187,2.0235,2.0263,2.0302,2.034,2.0358,2.0393,2.0429,2.0468,2.0489,2.0539,2.0551,2.0565,2.057,2.0563,2.0561,2.0578,2.0576,2.0582,2.0581,2.0581,2.0581,0,2.0008,2.0042,2.0102,2.0157,2.0171,2.0206,2.0251,2.0284,2.031,2.0358,2.0371,2.0412,2.0458,2.049,2.055,2.0564,2.0618,2.0623,2.0603,2.0605,2.0627,2.0624,2.0695,2.0705,2.0661,2.0662,2.0662,0,2.0037,2.0072,2.013,2.0157,2.0184,2.0228,2.0258,2.0289,2.0319,2.0372,2.0398,2.0446,2.0486,2.0559,2.0594,2.0639,2.0644,2.0666,2.0651,2.0642,2.0643,2.064,2.0643,2.0668,2.0668,2.0669,2.0669,0,2.0085,2.01,2.0143,2.0192,2.0227,2.0267,2.0306,2.0327,2.0365,2.0397,2.0446,2.0477,2.0538,2.0584,2.0633,2.0659,2.0669,2.0673,2.0681,2.0674,2.066,2.0667,2.0608,2.0671,2.0671,2.0671,2.0671,2.0671,2.0114,2.0145,2.0191,2.0238,2.0271,2.0307,2.034,2.037,2.0411,2.0464,2.0479,2.0529,2.0571,2.0637,2.0663,2.0702,2.0699,2.0711,2.0714,2.0716,2.0715,2.0655,2.0711,2.0711,2.0711,2.0711,2.071,0,2.0162,2.0192,2.0235,2.029,2.0326,2.0334,2.0378,2.0407,2.0451,2.049,2.0529,2.0583,2.0628,2.0666,2.0712,2.0735,2.0741,2.0746,2.0744,2.0749,2.0715,2.0703,2.074,2.074,2.074,2.074,2.074,2.074,2.0191,2.0244,2.0264,2.0333,2.0362,2.0412,2.0436,2.0469,2.05,2.056,2.0598,2.0622,2.066,2.0708,2.0749,2.0759,2.0774,2.0778,2.0788,2.0756,2.0752,2.0749,2.0738,2.0781,2.0782,2.082,2.082,2.082]}]]